Regional Weather Roundup
Issued by NWS Burlington, VT

Home | Current Version | Previous Version | Text Only | Print | Product List | Glossary On
Versions: 1 2 3 4 5 6 7 8 9 10 11 12 13 14 15 16 17 18 19 20 21 22 23 24 25 26 27 28 29 30 31 32 33 34 35 36 37 38 39 40 41 42 43 44 45 46 47 48 49 50
000
ASUS41 KBTV 230330
RWRBTV
VERMONT REGIONAL WEATHER ROUNDUP
NATIONAL WEATHER SERVICE BURLINGTON VT
1000 PM EST WED FEB 22 2017

NOTE: "FAIR" INDICATES FEW OR NO CLOUDS BELOW 12,000 FEET WITH NO
SIGNIFICANT WEATHER AND/OR OBSTRUCTIONS TO VISIBILITY.

* THESE REPORTS ARE NOT UNDER NWS QUALITY CONTROL AND/OR DO NOT
  REPORT WEATHER SUCH AS PRECIPITATION AND FOG.

VTZ001>019-230400-
_____VERMONT_____


CITY           SKY/WX    TMP DP  RH WIND       PRES   REMARKS
BURLINGTON     CLOUDY    39  33  79 CALM      29.83S
MONTPELIER     MOCLDY    34  32  92 CALM      29.88R
MORRISVILLE    CLOUDY    33  29  85 CALM      29.85F
ST. JOHNSBURY*   N/A     30  29  96 MISG      29.85S
LYNDONVILLE*   MOCLDY    32  29  89 CALM      29.86S
MIDDLEBURY*    CLOUDY    46  30  53 S6        29.85R
RUTLAND*       CLOUDY    41  35  79 E6        29.86R
SPRINGFIELD    CLEAR     30  27  88 CALM      29.87S
HIGHGATE*      CLOUDY    35  32  88 SE3       29.82F
NEWPORT*       MOCLDY    33  30  88 SW7       29.83F WCI  27
BENNINGTON     CLEAR     36  31  82 SE3       29.86R
ISLAND POND*     N/A     25 N/A N/A CALM        N/A
GALLUP MILLS*    N/A     27 N/A N/A MISG        N/A
UNION VILLAGE*   N/A     30 N/A N/A MISG        N/A
MT. MANSFIELD*   N/A     39 N/A N/A SW29        N/A  WCI  28

_____LAKE CHAMPLAIN_____


CITY           SKY/WX    TMP DP  RH WIND       PRES   REMARKS
BURTON ISLAND*   N/A     36  32  87 SW6         N/A  WCI  31
COLCHESTER RF*   N/A     37  36  93 SW7         N/A
DIAMOND ISL*     N/A     37  34  87 S3          N/A

$$

NYZ007-026>031-035-052-083-087-230400-
_____NORTHERN NEW YORK_____


CITY           SKY/WX    TMP DP  RH WIND       PRES   REMARKS
PLATTSBURGH    CLOUDY    35  31  85 CALM      29.82S
SARANAC LAKE   CLOUDY    37  33  85 CALM      29.80S
MASSENA        CLOUDY    37  34  89 E3        29.80F
OGDENSBURG*    CLOUDY    42  37  80 CALM      29.78F
POTSDAM*       MOCLDY    39  37  93 CALM      29.79F
STARK FALLS*     N/A     39 N/A N/A SE8         N/A
WATERTOWN      MOCLDY    50  40  68 S3        29.78F
FT DRUM        CLOUDY    48  39  71 SE10      29.78F
ALBANY         PTCLDY    48  35  60 S5        29.87S
GLENS FALLS    MOCLDY    38  31  76 CALM      29.86S

$$
NHZ002-005-011-230400-
_____NEW HAMPSHIRE_____


CITY           SKY/WX    TMP DP  RH WIND       PRES   REMARKS
LEBANON        CLEAR     32  30  92 CALM      29.86S
MT WASHINGTON  PTCLDY    32  10  40 W31         N/A  WCI  17
PLYMOUTH       FAIR      28  28  96 CALM      29.89R
WHITEFIELD     CLEAR     27  23  85 CALM      29.85R

$$

_____REGIONAL QUEBEC LOCATIONS_____


CITY           SKY/WX    TMP DP  RH WIND       PRES   REMARKS
MONTREAL       CLOUDY    39  32  75 N5        29.81F
QUEBEC CITY    PTCLDY    32  28  86 N6        29.83F WCI  26
SHERBROOKE     PTCLDY    32  28  86 SE3       29.82F

_____REGIONAL ONTARIO LOCATIONS_____


CITY           SKY/WX    TMP DP  RH WIND       PRES   REMARKS
OTTAWA         CLOUDY    36  32  87 NE6       29.79S WCI  31

______KEY______
VSB  - VISIBILITY IN MILES
WCI  - WIND CHILL INDEX
HX   - HEAT INDEX
$$
NNNN



USA.gov is the U.S. government's official web portal to all federal, state and local government web resources and services.